Location: Auckland
(36.8670°S, 174.7670°E)
Time: 12:36:52
(UTC+12:00)

Tiros 1 despin weight - Pass Details

Date: 19 July 2019
Orbit: 594 x 642 km, 48.2° (Epoch: 23 August)

Event Time Altitude Azimuth Distance (km) Brightness Sun altitude
Rises 04:48:46 0° 237° (WSW) 2,872 - -31.7°
Reaches altitude 10° 04:51:34 10° 221° (SW) 1,975 - -31.2°
Maximum altitude 04:55:00 21° 171° (S) 1,405 - -30.5°
Exits shadow 04:56:20 19° 147° (SSE) 1,506 ? -30.2°
Drops below altitude 10° 04:58:29 10° 121° (ESE) 1,993 ? -29.8°
Sets 05:01:19 0° 105° (ESE) 2,907 ? -29.2°
